Wind_Speed
33 32 31 33 37 42 38 38 40 36 33 29 26 27 29 26 22 19 17 20 21 23 23 24 27 28 25 26 22 21 21 18 15 18 14 17 13 14 20 25 24 22 23 30 33 26 21 23 19 15 13 9 13 12
33 30 29 31 34 37 37 36 36 37 36 35 34 31 27 22 20 19 19 20 21 23 20 19 23 25 26 28 32 29 27 12 11 10 12 11 15 15 15 20 19 21 17 16 22 24 20 13 16 15 14 15 15 14
35 32 33 30 31 30 28 28 28 28 26 23 26 24 23 19 18 19 19 20 22 23 24 27 27 25 26 27 30 29 31 34 29 23 25 20 17 14 14 21 20 25 19 17 19 19 19 18 22 24 33 27 24 28
36 30 31 26 24 22 21 19 20 22 22 20 18 21 22 21 19 20 23 23 25 26 23 16 17 21 21 19 22 27 29 36 34 30 31 33 34 28 33 34 37 32 32 30 30 28 28 25 22 19 23 23 20 20
30 28 27 29 23 20 20 20 18 18 20 20 20 20 21 22 23 22 23 22 23 22 18 21 24 19 16 14 14 20 20 29 29 32 34 35 35 33 34 32 41 32 32 25 35 29 26 29 29 31 27 28 24 21
33 34 29 26 24 23 23 25 24 23 24 24 23 22 21 19 18 19 19 23 24 20 19 18 19 20 16 11 12 15 13 17 21 26 30 33 33 24 22 37 38 31 30 31 39 39 37 42 42 40 34 40 35 31
26 31 35 34 31 29 28 30 31 27 24 23 20 18 16 15 16 18 17 12 10 10 12 10 14 12 14 14 12 13 15 18 22 25 31 30 30 26 35 48 41 38 36 36 36 40 42 44 47 47 41 42 38 33
20 21 21 22 24 23 22 21 19 18 17 16 14 13 13 13 13 15 14 10 9 9 9 6 5 9 13 14 14 13 11 12 19 18 22 19 20 20 32 39 33 32 29 30 32 33 35 35 33 34 37 43 47 47
19 18 16 17 18 18 17 16 15 14 13 13 12 12 11 10 9 8 9 11 12 13 7 9 11 4 7 8 8 11 17 22 23 25 26 25 30 32 36 33 35 34 35 38 40 39 35 34 35 38 36 36 42 41
15 15 15 14 14 14 15 16 16 17 16 14 12 10 7 5 6 7 7 9 11 15 18 20 17 21 15 16 16 15 16 21 23 29 28 32 41 41 37 35 35 36 38 38 42 43 40 43 45 45 47 46 39 41
22 22 22 21 20 20 19 18 17 17 15 13 10 8 4 1 2 3 3 3 3 5 6 5 8 10 13 13 17 15 19 21 22 33 30 34 39 41 31 25 32 36 34 33 33 42 41 47 35 36 36 47 42 39
19 19 18 18 17 17 16 16 15 15 14 12 10 7 4 1 2 2 2 3 4 3 5 6 7 6 6 14 17 15 13 8 12 15 16 26 25 25 24 22 27 25 24 32 30 32 21 27 35 38 39 37 35 34
17 16 15 15 14 13 13 13 13 10 10 10 10 6 3 4 5 4 4 6 5 7 10 6 10 11 10 15 12 12 7 11 15 14 24 22 19 19 17 16 19 26 28 26 30 28 26 31 33 33 38 39 33 31
14 13 13 13 12 11 11 11 11 12 12 8 6 4 4 5 5 3 6 14 13 17 17 17 12 12 14 14 10 7 9 8 8 13 21 21 22 20 20 32 27 32 36 30 29 28 31 36 32 34 34 32 28 26
10 11 10 10 10 10 10 9 9 10 8 6 4 4 4 2 6 10 13 12 11 8 10 12 16 10 12 10 8 8 6 8 8 14 19 25 33 35 34 36 38 40 34 35 41 42 41 33 35 34 27 27 26 29
10 9 8 8 10 10 8 7 8 8 7 4 6 5 6 10 7 10 11 19 10 8 12 16 9 8 12 8 8 10 7 13 21 24 31 33 37 43 46 49 47 46 46 45 44 38 36 38 35 35 31 29 26 26
8 7 7 7 7 7 6 6 4 6 4 5 1 4 5 11 12 11 13 9 8 11 16 14 10 6 8 9 10 12 20 26 26 35 43 48 51 52 50 47 47 49 48 43 35 38 29 28 24 20 19 14 14 14
5 9 8 6 6 6 6 7 8 7 10 10 11 9 8 8 15 17 14 10 13 14 14 18 20 22 20 24 29 34 40 47 49 44 43 46 48 48 47 46 43 38 33 34 32 24 17 15 15 11 6 9 12 13
5 5 4 3 3 2 3 6 9 9 10 7 9 11 14 16 17 21 23 22 23 24 27 30 27 29 33 36 38 43 45 48 49 43 39 33 33 34 34 32 32 31 26 21 22 19 16 11 3 11 14 12 14 14
5 4 3 2 1 3 2 5 8 9 5 3 4 10 17 20 23 24 24 27 25 25 28 34 39 39 41 45 44 43 41 38 37 36 32 27 25 24 22 23 19 15 15 13 12 9 7 5 10 11 11 13 13 13
4 2 1 2 4 5 5 5 6 7 10 9 8 12 12 5 6 8 7 9 15 10 15 18 22 25 27 31 37 36 32 29 32 29 26 22 14 15 15 11 12 10 8 7 4 6 2 7 11 12 10 5 6 2
3 1 2 3 5 6 4 4 6 9 7 4 4 5 5 6 8 6 10 12 9 16 21 20 19 18 17 16 14 15 17 16 15 17 17 16 14 13 12 10 8 4 6 8 2 4 7 11 13 12 9 8 3 13
1 3 3 4 4 3 4 7 6 7 7 12 10 8 8 11 11 11 7 11 14 15 17 18 17 13 15 17 18 17 21 19 15 15 8 10 9 10 8 8 13 13 10 8 12 14 14 13 11 13 13 10 21 36
4 3 3 4 5 7 8 10 10 11 13 15 13 9 11 11 10 14 17 22 18 14 12 11 14 13 14 17 21 23 18 14 8 5 8 9 8 8 12 21 3 9 4 9 11 9 14 15 15 14 13 12 20 37
5 5 4 6 6 7 9 11 12 13 16 16 16 14 13 11 12 19 21 17 20 17 18 13 10 17 25 20 23 13 12 5 9 9 10 11 4 9 14 13 4 7 10 7 5 8 12 12 13 18 25 20 33 39
8 8 6 7 8 9 10 12 11 12 12 14 15 12 9 9 10 22 19 18 20 22 20 17 18 24 25 21 25 12 12 7 13 11 14 12 8 11 10 10 9 3 4 8 13 18 14 11 26 21 29 38 39 32
8 9 11 13 15 11 10 12 14 16 14 11 11 9 9 6 8 15 15 17 18 21 22 19 25 26 25 22 29 26 16 21 21 21 23 17 14 11 8 10 8 13 15 15 24 20 21 30 43 46 42 33 29 31
8 9 9 9 13 13 11 11 11 11 13 14 15 12 11 11 16 17 16 13 14 18 16 19 19 17 21 27 28 22 21 19 21 16 15 24 18 22 13 17 18 18 19 21 21 34 46 50 41 32 30 33 33 31
6 8 8 7 8 4 7 10 9 13 15 17 15 18 18 22 22 23 22 18 16 15 12 12 17 23 20 19 18 21 18 12 13 27 25 28 26 19 13 14 18 23 29 49 44 44 42 34 32 31 30 30 34 36
8 8 10 6 3 6 9 13 7 13 19 18 19 17 17 19 20 25 23 16 11 12 15 18 17 17 19 23 22 18 23 19 19 19 24 24 26 16 18 26 27 35 43 37 43 33 32 32 27 26 28 26 28 32
2 4 7 1 3 10 11 12 16 8 8 13 17 19 18 16 21 24 23 17 13 13 12 11 11 14 14 18 17 16 18 24 21 21 19 21 21 19 25 28 29 27 24 29 30 28 29 31 22 18 20 21 24 28
2 2 1 3 3 6 7 7 7 11 6 5 13 19 20 20 19 21 23 15 11 10 11 10 11 14 16 15 15 18 18 15 23 17 19 19 19 15 27 21 27 27 25 25 21 21 20 18 15 15 17 19 25 33
6 2 4 1 2 3 2 4 2 3 2 7 13 15 17 20 21 23 25 23 16 11 8 8 10 9 13 14 13 15 13 12 12 23 20 18 17 15 30 25 27 27 17 18 18 18 17 18 18 18 18 21 28 29
Wind_Direction
220 225 229 230 232 230 229 234 237 238 242 241 238 255 264 265 259 250 249 236 239 242 240 246 243 243 238 241 234 231 236 252 263 255 256 250 252 241 250 256 258 257 228 226 236 239 260 256 271 276 255 272 265 277
211 220 224 225 233 233 235 240 239 238 240 248 252 253 254 251 238 244 245 244 245 247 254 257 257 260 260 254 248 235 225 227 219 218 222 229 236 246 254 273 253 261 272 265 243 252 256 253 281 270 273 267 258 251
215 219 224 227 231 236 240 244 245 244 242 245 246 243 236 232 237 248 257 259 258 260 261 265 262 256 252 246 249 245 243 242 228 227 228 248 241 242 252 251 254 242 255 277 273 257 248 260 280 283 270 276 270 266
218 211 219 218 218 220 222 225 232 227 225 233 242 231 230 236 250 259 260 260 262 264 266 268 260 254 251 250 249 250 243 246 242 242 248 246 250 257 263 267 262 262 269 270 265 268 275 277 272 258 268 265 265 277
207 210 215 213 216 224 228 222 226 226 234 243 251 246 247 256 260 257 254 252 251 246 246 230 248 264 266 267 266 250 242 242 247 249 249 253 260 268 273 267 260 255 255 267 265 271 271 268 261 262 266 279 271 259
209 210 208 209 209 222 217 224 235 244 249 251 256 259 257 254 249 241 230 239 244 248 247 233 240 250 270 262 266 266 256 249 250 252 254 257 260 245 260 264 268 261 256 253 257 259 267 266 270 271 276 271 276 276
206 210 210 205 213 218 224 232 236 241 244 247 247 243 242 238 234 229 235 249 233 229 233 250 253 261 264 270 282 289 274 263 262 262 260 263 261 242 248 260 276 274 274 273 265 261 263 260 264 265 267 265 265 264
181 185 190 200 209 216 219 221 224 226 227 229 224 216 211 207 203 208 218 223 219 228 236 233 223 257 263 262 276 294 287 289 275 280 276 275 285 271 259 276 289 293 295 294 292 290 283 284 283 280 273 271 269 266
162 168 176 183 187 192 198 204 205 200 189 178 169 171 174 186 201 215 217 227 234 237 234 226 220 257 265 271 275 268 275 274 282 279 277 276 277 256 273 288 291 289 290 289 290 287 284 280 275 275 274 277 280 278
153 156 161 164 167 165 164 160 157 151 143 143 147 153 152 176 205 225 237 244 247 247 248 256 254 229 223 219 242 268 266 260 265 271 275 265 267 276 279 278 278 279 279 280 285 280 274 275 273 284 267 267 270 268
114 115 117 121 125 127 129 132 135 139 141 139 137 121 151 210 236 227 244 270 276 274 277 290 259 260 237 260 272 266 268 267 272 267 270 274 271 268 278 281 274 285 278 283 288 293 275 283 273 273 277 256 268 267
113 117 122 127 130 134 140 145 148 148 147 146 142 150 159 253 223 189 222 218 243 279 293 325 300 239 252 248 255 259 262 261 266 289 279 269 272 288 286 285 266 273 281 288 291 296 284 281 280 280 287 272 283 245
113 117 121 124 128 135 140 143 146 140 142 153 152 146 181 211 221 209 221 217 229 256 248 227 235 210 249 276 275 272 251 249 278 267 263 283 264 265 262 267 274 282 288 298 299 287 284 289 281 284 285 277 277 268
114 117 120 123 127 134 141 148 151 150 145 151 157 181 207 214 224 295 270 250 267 271 288 302 273 265 266 277 270 252 261 265 247 257 273 279 280 281 307 315 305 290 280 300 300 293 289 294 287 286 290 278 267 253
117 119 123 126 128 134 138 144 156 168 175 158 173 207 248 312 254 275 289 297 260 294 285 288 272 250 266 262 255 240 243 243 240 288 303 300 302 311 310 310 317 313 308 301 303 302 298 291 293 288 280 277 269 256
127 122 128 136 142 145 144 150 163 172 200 219 223 215 196 270 256 244 268 280 240 272 276 286 272 269 265 244 226 229 244 258 281 296 298 301 304 302 302 305 306 304 301 301 300 295 291 289 289 285 283 277 270 263
142 146 121 126 143 153 157 163 189 227 241 236 342 338 282 274 299 301 294 305 296 279 283 268 243 244 269 248 235 249 268 298 288 287 288 286 288 294 297 296 296 297 300 300 298 301 300 294 284 279 276 263 250 237
142 155 156 153 166 177 197 219 227 235 256 267 245 232 228 271 290 306 304 265 255 268 269 266 269 264 256 264 271 281 287 291 289 289 293 297 297 294 293 293 296 299 301 304 305 312 311 296 285 287 142 162 169 180
136 147 156 157 161 202 260 260 255 270 277 248 233 251 271 274 268 263 268 265 264 263 264 264 267 269 273 282 286 286 286 293 299 300 300 302 304 300 298 298 299 303 306 307 306 305 294 283 231 161 156 167 174 193
137 140 150 168 232 277 298 260 290 289 296 259 250 279 264 268 268 271 270 273 271 270 269 271 276 279 282 285 288 292 299 300 299 301 306 309 310 302 304 305 308 315 317 324 294 303 292 149 143 157 171 182 192 202
145 168 211 265 286 278 266 262 280 293 312 308 292 293 298 320 318 321 325 307 281 275 291 286 285 284 285 289 293 296 297 298 298 303 312 323 328 315 320 316 319 314 304 326 310 308 249 145 150 152 179 161 109 157
167 222 352 345 330 309 307 301 299 308 313 357 356 337 321 331 342 347 333 339 336 313 312 311 312 309 307 310 313 324 327 320 313 311 318 318 323 329 327 327 337 311 305 295 246 217 140 142 146 158 153 147 194 180
358 338 332 326 328 347 18 27 12 9 352 10 12 11 17 10 353 340 341 334 337 322 327 330 326 338 343 344 334 324 321 320 324 333 306 328 332 336 340 352 332 314 288 196 155 157 157 156 168 163 158 144 138 131
84 74 55 38 32 25 41 39 36 34 38 36 29 21 7 8 19 40 24 27 26 12 339 339 321 331 340 340 338 333 334 325 335 297 318 319 330 315 290 285 326 133 139 148 155 145 174 179 171 164 182 156 160 143
72 53 59 47 43 40 51 51 48 39 34 38 32 37 38 34 24 25 25 20 15 5 10 8 357 357 360 356 358 348 333 341 3 315 299 299 1 324 332 339 348 246 242 257 302 196 191 201 193 190 180 179 155 137
58 45 69 81 83 66 50 40 40 37 38 40 35 32 34 20 31 18 12 9 4 11 20 14 4 359 5 21 27 30 23 50 62 32 46 19 351 332 353 15 24 19 167 149 144 169 172 144 184 174 151 142 135 137
73 75 71 64 58 68 59 61 54 47 43 37 35 30 37 29 13 358 12 19 15 9 15 11 351 1 28 31 39 34 72 65 61 49 42 25 30 55 30 31 62 92 119 123 124 123 144 158 138 130 128 133 139 140
72 66 65 48 43 34 30 32 46 41 41 41 37 43 41 28 12 7 3 351 357 3 9 1 3 9 15 35 30 28 52 43 34 50 59 42 56 50 60 53 89 125 117 118 131 135 133 129 127 132 133 138 144 144
74 68 56 69 82 35 20 37 57 51 45 38 35 39 39 29 17 10 9 9 12 11 4 16 22 43 37 21 31 41 42 56 43 44 57 48 46 62 63 72 97 112 129 122 118 126 129 135 137 137 137 139 135 139
32 69 81 61 37 3 34 33 65 46 35 25 23 21 10 8 9 13 14 17 26 29 30 19 22 39 46 48 38 43 42 35 50 42 44 38 38 66 95 99 118 131 127 127 132 136 130 133 135 132 133 139 146 151
44 349 14 142 68 351 8 52 39 35 346 14 11 8 7 8 11 20 16 17 31 36 30 45 34 17 41 48 46 48 46 43 54 51 51 45 35 49 136 117 118 121 123 129 135 139 145 145 149 140 139 142 150 158
190 203 355 53 73 351 16 346 340 35 62 324 337 356 13 13 12 13 18 22 21 28 39 39 34 32 41 47 46 40 58 47 59 50 62 50 34 52 144 136 130 125 128 131 127 129 138 146 149 141 135 133 148 158
213 227 228 221 32 47 265 351 282 320 324 281 326 350 1 16 15 13 15 21 21 24 39 43 46 64 44 42 47 38 54 58 41 66 56 56 51 51 137 145 144 132 121 121 125 129 133 139 143 146 149 151 157 167
Height
3011 3018 3023 3027 3033 3040 3046 3051 3056 3060 3064 3067 3070 3072 3074 3076 3077 3078 3080 3082 3083 3084 3086 3086 3089 3090 3091 3093 3094 3096 3098 3094 3096 3098 3098 3097 3095 3096 3095 3097 3099 3100 3100 3098 3099 3099 3095 3095 3094 3097 3093 3089 3087 3088
3004 3011 3016 3022 3027 3032 3038 3043 3047 3051 3056 3059 3062 3064 3067 3069 3071 3073 3074 3075 3077 3078 3080 3081 3082 3084 3086 3086 3088 3089 3091 3090 3090 3091 3092 3091 3090 3089 3088 3087 3091 3092 3094 3093 3094 3090 3090 3088 3088 3086 3088 3087 3085 3084
2997 3003 3010 3016 3021 3026 3031 3036 3040 3044 3048 3050 3053 3056 3059 3063 3065 3067 3068 3069 3071 3072 3074 3073 3073 3076 3076 3078 3077 3082 3084 3083 3083 3083 3084 3085 3085 3085 3083 3081 3081 3082 3083 3082 3082 3082 3081 3081 3081 3081 3078 3079 3079 3078
2990 2997 3004 3010 3015 3020 3025 3029 3033 3037 3041 3044 3046 3049 3053 3056 3059 3060 3061 3064 3064 3064 3066 3066 3063 3066 3067 3070 3071 3071 3075 3073 3077 3078 3077 3078 3078 3079 3077 3076 3074 3077 3076 3074 3071 3074 3075 3075 3075 3072 3071 3073 3072 3072
2984 2991 2998 3004 3010 3014 3019 3024 3028 3032 3036 3039 3041 3044 3047 3050 3051 3053 3053 3055 3056 3061 3057 3056 3056 3060 3062 3063 3064 3064 3066 3066 3070 3071 3070 3069 3070 3073 3069 3067 3057 3069 3068 3069 3064 3067 3066 3064 3066 3066 3065 3065 3066 3065
2980 2986 2993 2999 3005 3010 3014 3019 3023 3027 3030 3033 3036 3038 3040 3042 3044 3046 3047 3046 3049 3051 3053 3055 3054 3055 3056 3059 3059 3060 3061 3062 3062 3062 3062 3061 3063 3066 3061 3053 3052 3057 3058 3059 3056 3057 3056 3054 3055 3055 3054 3055 3055 3055
2975 2980 2986 2993 2999 3004 3009 3014 3018 3021 3024 3027 3029 3031 3034 3036 3038 3041 3043 3046 3046 3048 3049 3050 3051 3052 3052 3053 3054 3054 3054 3054 3055 3054 3052 3053 3054 3057 3052 3041 3046 3047 3047 3047 3047 3046 3044 3044 3042 3044 3045 3044 3044 3044
2972 2978 2983 2989 2995 3001 3005 3009 3013 3016 3019 3022 3025 3027 3030 3033 3035 3038 3040 3042 3044 3046 3048 3048 3048 3050 3049 3049 3050 3050 3049 3049 3047 3047 3046 3047 3047 3045 3037 3034 3038 3037 3036 3036 3036 3036 3035 3034 3033 3032 3032 3032 3032 3032
2974 2978 2982 2987 2993 2997 3002 3006 3009 3012 3016 3020 3023 3027 3030 3032 3035 3038 3039 3040 3042 3046 3043 3044 3046 3047 3046 3047 3046 3047 3045 3043 3042 3038 3037 3041 3036 3031 3028 3030 3031 3030 3028 3028 3028 3027 3027 3025 3024 3022 3020 3020 3019 3020
2976 2979 2983 2987 2991 2996 3000 3004 3008 3012 3016 3021 3025 3028 3030 3032 3034 3036 3037 3038 3038 3038 3038 3038 3041 3041 3042 3042 3042 3046 3043 3040 3035 3032 3033 3030 3023 3023 3023 3024 3023 3023 3020 3019 3017 3014 3014 3011 3011 3010 3009 3009 3008 3007
2979 2983 2987 2990 2994 2998 3002 3006 3010 3014 3018 3021 3025 3027 3030 3031 3032 3034 3035 3036 3036 3036 3035 3035 3035 3036 3038 3038 3038 3039 3036 3033 3028 3025 3025 3021 3016 3016 3016 3015 3014 3012 3011 3010 3007 3002 2999 2998 2998 2998 2995 2996 2996 2997
2988 2991 2994 2996 2998 3001 3005 3009 3012 3015 3017 3021 3023 3026 3029 3031 3031 3033 3034 3035 3035 3034 3034 3034 3032 3034 3035 3034 3033 3033 3031 3029 3023 3021 3018 3010 3010 3012 3009 3008 3005 3004 3002 3000 2997 2994 2989 2989 2988 2986 2983 2982 2982 2983
2994 2996 2998 2999 3001 3004 3007 3010 3013 3016 3018 3021 3024 3027 3028 3030 3031 3032 3032 3032 3033 3033 3033 3032 3031 3032 3030 3030 3030 3030 3026 3022 3020 3015 3010 3007 3005 3003 3001 2999 2998 2996 2994 2992 2989 2985 2983 2981 2978 2976 2972 2970 2969 2969
2998 2999 3000 3002 3004 3007 3009 3011 3014 3016 3018 3021 3024 3025 3027 3028 3028 3029 3029 3030 3030 3030 3029 3029 3029 3029 3028 3027 3026 3024 3022 3019 3014 3009 3005 3001 2999 2997 2994 2994 2992 2989 2985 2982 2980 2978 2975 2971 2967 2965 2960 2959 2959 2959
3000 3002 3003 3005 3007 3009 3011 3013 3015 3017 3019 3021 3023 3024 3024 3025 3026 3028 3028 3026 3027 3027 3027 3025 3023 3025 3023 3023 3021 3019 3017 3011 3006 3004 3001 2998 2994 2991 2988 2985 2982 2978 2975 2972 2969 2964 2959 2956 2953 2950 2950 2949 2949 2951
3003 3005 3006 3007 3009 3011 3012 3014 3016 3017 3019 3020 3021 3021 3023 3024 3024 3025 3025 3024 3023 3022 3024 3022 3021 3020 3017 3016 3014 3011 3009 3003 3001 3000 2996 2992 2988 2983 2979 2975 2971 2967 2963 2960 2956 2951 2946 2944 2940 2939 2938 2938 2940 2942
3005 3006 3007 3009 3010 3011 3013 3015 3016 3017 3017 3018 3018 3019 3021 3022 3022 3022 3021 3020 3021 3022 3021 3019 3016 3015 3013 3009 3006 3004 3000 2997 2995 2990 2987 2982 2978 2974 2970 2965 2960 2956 2952 2946 2941 2938 2934 2931 2929 2928 2928 2930 2933 2936
3006 3007 3009 3010 3011 3013 3014 3015 3016 3016 3015 3015 3016 3017 3018 3019 3019 3017 3015 3015 3016 3016 3015 3014 3012 3008 3006 3001 2998 2997 2994 2989 2984 2978 2974 2971 2967 2962 2957 2951 2948 2944 2940 2937 2933 2929 2927 2926 2924 2924 2926 2928 2930 2934
3007 3009 3010 3011 3012 3013 3013 3014 3014 3013 3012 3012 3013 3014 3014 3014 3013 3012 3011 3010 3010 3010 3009 3007 3005 2999 2997 2996 2992 2986 2981 2976 2969 2965 2962 2959 2955 2949 2944 2942 2939 2936 2934 2931 2929 2926 2924 2922 2922 2924 2926 2928 2931 2935
3009 3010 3011 3011 3012 3012 3013 3013 3012 3011 3010 3010 3009 3009 3008 3007 3006 3004 3005 3003 3004 3004 3002 2998 2994 2993 2989 2984 2980 2976 2972 2967 2961 2954 2951 2950 2947 2941 2939 2935 2933 2931 2930 2928 2927 2925 2923 2923 2924 2927 2929 2930 2933 2931
3010 3010 3011 3011 3011 3011 3011 3011 3010 3009 3007 3006 3006 3004 3003 3002 3001 3000 2998 2997 2995 2995 2993 2990 2986 2982 2979 2976 2972 2966 2962 2959 2954 2949 2945 2941 2940 2936 2934 2931 2930 2928 2928 2927 2927 2925 2924 2926 2927 2929 2931 2928 2934 2936
3010 3010 3010 3010 3010 3010 3009 3008 3008 3007 3006 3004 3003 3002 3001 3000 2999 2997 2996 2994 2992 2991 2986 2983 2980 2975 2972 2969 2965 2961 2957 2953 2949 2946 2942 2939 2935 2934 2931 2929 2928 2927 2926 2926 2927 2926 2927 2929 2930 2932 2934 2937 2938 2938
3010 3010 3010 3010 3010 3009 3011 3007 3006 3005 3004 3003 3001 3000 2999 2998 2997 2996 2995 2993 2990 2986 2983 2979 2976 2972 2969 2966 2962 2959 2955 2950 2946 2942 2938 2937 2934 2932 2930 2928 2926 2925 2924 2926 2926 2927 2929 2931 2933 2936 2939 2942 2942 2945
3011 3011 3010 3010 3010 3010 3009 3008 3007 3006 3005 3003 3001 3000 2999 2999 2998 2997 2994 2991 2989 2986 2982 2979 2976 2972 2969 2964 2959 2954 2950 2947 2943 2941 2938 2935 2933 2931 2928 2926 2926 2925 2927 2927 2925 2928 2930 2933 2936 2939 2942 2945 2949 2953
3014 3014 3013 3012 3012 3011 3010 3009 3008 3007 3006 3004 3003 3002 3002 3001 2999 2998 2995 2993 2990 2986 2982 2979 2975 2971 2966 2961 2957 2952 2949 2947 2945 2940 2937 2934 2933 2930 2927 2925 2924 2925 2925 2926 2927 2929 2931 2933 2935 2937 2944 2949 2954 2959
3013 3015 3015 3014 3014 3014 3013 3012 3010 3010 3008 3007 3005 3004 3003 3003 3002 3001 2997 2994 2990 2986 2983 2979 2975 2969 2966 2962 2956 2952 2948 2946 2942 2941 2937 2935 2932 2929 2926 2924 2921 2921 2920 2923 2926 2930 2934 2935 2938 2942 2949 2955 2963 2968
3017 3018 3017 3017 3017 3016 3016 3015 3014 3013 3011 3010 3009 3007 3005 3004 3003 3002 2999 2995 2992 2988 2985 2982 2978 2972 2969 2965 2958 2955 2951 2949 2948 2947 2943 2938 2934 2931 2929 2926 2924 2924 2924 2926 2931 2935 2938 2941 2946 2953 2960 2965 2971 2975
3020 3020 3019 3020 3019 3019 3019 3018 3017 3016 3015 3014 3012 3010 3009 3008 3006 3003 2999 2996 2993 2991 2987 2984 2981 2977 2974 2969 2963 2961 2957 2957 2954 2949 2947 2943 2939 2936 2933 2931 2930 2931 2932 2935 2939 2942 2948 2953 2959 2964 2968 2972 2977 2984
3021 3021 3022 3023 3022 3024 3022 3021 3020 3019 3018 3016 3015 3012 3011 3009 3006 3002 2999 2995 2993 2991 2988 2986 2983 2980 2979 2975 2971 2969 2964 2963 2960 2954 2952 2950 2946 2945 2942 2940 2940 2941 2944 2948 2952 2956 2961 2965 2969 2973 2977 2981 2987 2992
3024 3024 3025 3027 3027 3025 3024 3023 3021 3020 3019 3019 3017 3015 3013 3010 3008 3004 3000 2997 2995 2993 2990 2988 2986 2985 2982 2978 2976 2973 2971 2967 2965 2963 2960 2957 2955 2954 2953 2952 2952 2954 2958 2961 2964 2968 2972 2976 2979 2983 2987 2991 2995 2999
3026 3025 3026 3026 3026 3025 3025 3024 3023 3022 3021 3020 3019 3018 3015 3012 3010 3006 3002 2999 2996 2995 2993 2992 2990 2988 2985 2982 2981 2979 2976 2974 2970 2969 2968 2966 2962 2961 2962 2963 2964 2967 2968 2971 2974 2977 2980 2984 2987 2990 2994 2997 3000 3004
3027 3028 3028 3027 3027 3027 3026 3025 3025 3026 3025 3024 3023 3020 3017 3014 3012 3009 3006 3002 2999 2997 2996 2994 2993 2992 2989 2987 2985 2984 2982 2980 2977 2975 2974 2972 2970 2967 2968 2969 2972 2975 2978 2981 2984 2986 2989 2991 2994 2996 2999 3002 3005 3008
3026 3026 3026 3027 3028 3028 3028 3027 3027 3026 3026 3024 3023 3021 3019 3017 3013 3010 3007 3003 3000 2998 2997 2997 2996 2994 2993 2992 2990 2988 2987 2985 2981 2980 2979 2978 2976 2973 2974 2976 2980 2983 2986 2987 2989 2991 2993 2996 2998 3001 3003 3006 3010 3013